Meteo pe oră la Bolshie Kirilly

Astăzi, 6 Mai, Joi

Timp Temperatura Precipitaţii Vânt Presiune Umiditate
00:00 +8°C° 0 mm 4 m/s 736 mmHg 87%
01:00 +9°C° 0 mm 5 m/s 736 mmHg 88%
02:00 +9°C° 0 mm 5 m/s 736 mmHg 90%
03:00 +9°C° 0 mm 5 m/s 735 mmHg 90%
04:00 +9°C° 0 mm 6 m/s 735 mmHg 91%
05:00 +9°C° 0 mm 7 m/s 735 mmHg 92%
06:00 +9°C° 0.1 mm 7 m/s 734 mmHg 88%
07:00 +10°C° 0.1 mm 7 m/s 734 mmHg 85%
08:00 +10°C° 0.1 mm 8 m/s 734 mmHg 81%
09:00 +9°C° 1 mm 8 m/s 734 mmHg 84%
10:00 +8°C° 1 mm 7 m/s 734 mmHg 88%
11:00 +6°C° 1 mm 7 m/s 734 mmHg 91%
12:00 +7°C° 0.3 mm 6 m/s 735 mmHg 90%
13:00 +7°C° 0.3 mm 5 m/s 736 mmHg 88%
14:00 +7°C° 0.3 mm 5 m/s 737 mmHg 87%
15:00 +8°C° 0.2 mm 5 m/s 737 mmHg 82%
16:00 +8°C° 0.2 mm 5 m/s 737 mmHg 77%
17:00 +9°C° 0.2 mm 5 m/s 738 mmHg 72%
18:00 +7°C° 0.1 mm 5 m/s 738 mmHg 77%
19:00 +6°C° 0.1 mm 4 m/s 739 mmHg 82%
20:00 +5°C° 0.1 mm 3 m/s 740 mmHg 86%
21:00 +4°C° 0 mm 3 m/s 740 mmHg 87%
22:00 +3°C° 0 mm 3 m/s 740 mmHg 88%
23:00 +3°C° 0 mm 3 m/s 740 mmHg 89%

Mâine, 7 Mai, Vineri

Timp Temperatura Precipitaţii Vânt Presiune Umiditate
00:00 +2°C° 0 mm 3 m/s 741 mmHg 89%
01:00 +2°C° 0 mm 3 m/s 741 mmHg 89%
02:00 +1°C° 0 mm 3 m/s 741 mmHg 89%
03:00 +1°C° 0 mm 3 m/s 741 mmHg 88%
04:00 +1°C° 0 mm 3 m/s 741 mmHg 87%
05:00 +1°C° 0 mm 3 m/s 741 mmHg 87%
06:00 +4°C° 0 mm 4 m/s 741 mmHg 79%
07:00 +6°C° 0 mm 5 m/s 742 mmHg 72%
08:00 +8°C° 0 mm 5 m/s 742 mmHg 65%
09:00 +9°C° 0.1 mm 6 m/s 742 mmHg 63%
10:00 +10°C° 0.1 mm 6 m/s 741 mmHg 61%
11:00 +11°C° 0.1 mm 7 m/s 741 mmHg 59%
12:00 +13°C° 0.2 mm 6 m/s 741 mmHg 58%
13:00 +13°C° 0.2 mm 6 m/s 741 mmHg 58%
14:00 +14°C° 0.2 mm 6 m/s 741 mmHg 57%
15:00 +13°C° 0.2 mm 6 m/s 741 mmHg 61%
16:00 +11°C° 0.2 mm 6 m/s 740 mmHg 65%
17:00 +10°C° 0.2 mm 6 m/s 740 mmHg 69%
18:00 +9°C° 1.4 mm 5 m/s 740 mmHg 77%
19:00 +9°C° 1.4 mm 5 m/s 739 mmHg 84%
20:00 +8°C° 1.4 mm 5 m/s 739 mmHg 92%
21:00 +8°C° 0.8 mm 5 m/s 738 mmHg 91%
22:00 +8°C° 0.8 mm 5 m/s 738 mmHg 90%
23:00 +8°C° 0.8 mm 6 m/s 737 mmHg 90%

Poimâine, 8 Mai, Sâmbătă

Timp Temperatura Precipitaţii Vânt Presiune Umiditate
00:00 +8°C° 1.1 mm 5 m/s 737 mmHg 92%
01:00 +8°C° 1.1 mm 4 m/s 737 mmHg 95%
02:00 +8°C° 1.1 mm 4 m/s 736 mmHg 97%
03:00 +9°C° 1.2 mm 3 m/s 736 mmHg 97%
04:00 +9°C° 1.2 mm 3 m/s 735 mmHg 98%
05:00 +9°C° 1.2 mm 3 m/s 735 mmHg 98%
06:00 +9°C° 0.7 mm 3 m/s 735 mmHg 95%
07:00 +10°C° 0.7 mm 4 m/s 735 mmHg 92%
08:00 +10°C° 0.7 mm 4 m/s 735 mmHg 90%
09:00 +8°C° 0.1 mm 5 m/s 735 mmHg 86%
10:00 +8°C° 0.1 mm 6 m/s 735 mmHg 82%
11:00 +6°C° 0.1 mm 8 m/s 736 mmHg 78%
12:00 +5°C° 0 mm 7 m/s 736 mmHg 81%
13:00 +4°C° 0 mm 7 m/s 736 mmHg 84%
14:00 +3°C° 0 mm 7 m/s 737 mmHg 88%
15:00 +2°C° 0 mm 7 m/s 737 mmHg 90%
16:00 +2°C° 0 mm 7 m/s 738 mmHg 92%
17:00 +2°C° 0 mm 7 m/s 738 mmHg 94%
18:00 +2°C° 0 mm 6 m/s 739 mmHg 91%
19:00 +3°C° 0 mm 6 m/s 740 mmHg 87%
20:00 +3°C° 0 mm 5 m/s 740 mmHg 84%
21:00 +2°C° 0 mm 5 m/s 741 mmHg 84%
22:00 +2°C° 0 mm 5 m/s 741 mmHg 84%
23:00 +1°C° 0 mm 5 m/s 742 mmHg 84%

9 Mai, Duminică

Timp Temperatura Precipitaţii Vânt Presiune Umiditate
00:00 +1°C° 0 mm 5 m/s 742 mmHg 87%
01:00 +1°C° 0 mm 5 m/s 743 mmHg 89%
02:00 0°C° 0 mm 4 m/s 743 mmHg 91%
03:00 0°C° 0 mm 4 m/s 744 mmHg 91%
04:00 0°C° 0 mm 4 m/s 745 mmHg 91%
05:00 0°C° 0 mm 4 m/s 745 mmHg 91%
06:00 +1°C° 0 mm 4 m/s 746 mmHg 81%
07:00 +4°C° 0 mm 4 m/s 746 mmHg 71%
08:00 +6°C° 0 mm 4 m/s 747 mmHg 62%
09:00 +7°C° 0 mm 5 m/s 747 mmHg 57%
10:00 +8°C° 0 mm 5 m/s 748 mmHg 52%
11:00 +9°C° 0 mm 5 m/s 748 mmHg 47%
12:00 +10°C° 0 mm 5 m/s 749 mmHg 46%
13:00 +10°C° 0 mm 5 m/s 749 mmHg 44%
14:00 +12°C° 0 mm 5 m/s 749 mmHg 43%
15:00 +11°C° 0 mm 4 m/s 750 mmHg 46%
16:00 +11°C° 0 mm 4 m/s 750 mmHg 49%
17:00 +11°C° 0 mm 3 m/s 750 mmHg 52%
18:00 +9°C° 0 mm 2 m/s 751 mmHg 58%
19:00 +8°C° 0 mm 2 m/s 751 mmHg 64%
20:00 +7°C° 0 mm 1 m/s 752 mmHg 70%
21:00 +6°C° 0 mm 1 m/s 752 mmHg 70%
22:00 +6°C° 0 mm 1 m/s 752 mmHg 71%
23:00 +5°C° 0 mm 1 m/s 753 mmHg 71%

10 Mai, Luni

Timp Temperatura Precipitaţii Vânt Presiune Umiditate
00:00 +5°C° 0 mm 1 m/s 753 mmHg 71%
01:00 +5°C° 0 mm 1 m/s 753 mmHg 71%
02:00 +5°C° 0 mm 1 m/s 753 mmHg 71%
03:00 +5°C° 0 mm 1 m/s 754 mmHg 72%
04:00 +5°C° 0 mm 1 m/s 754 mmHg 72%
05:00 +5°C° 0 mm 1 m/s 754 mmHg 73%
06:00 +7°C° 0 mm 1 m/s 754 mmHg 67%
07:00 +8°C° 0 mm 2 m/s 755 mmHg 61%
08:00 +10°C° 0 mm 2 m/s 755 mmHg 55%
09:00 +13°C° 0 mm 2 m/s 755 mmHg 52%
10:00 +14°C° 0 mm 2 m/s 755 mmHg 49%
11:00 +15°C° 0 mm 2 m/s 755 mmHg 46%
12:00 +16°C° 0 mm 1 m/s 754 mmHg 45%
13:00 +16°C° 0 mm 1 m/s 754 mmHg 44%
14:00 +18°C° 0 mm 1 m/s 754 mmHg 43%
15:00 +18°C° 0 mm 1 m/s 754 mmHg 44%
16:00 +18°C° 0 mm 1 m/s 754 mmHg 45%
17:00 +16°C° 0 mm 1 m/s 753 mmHg 47%
18:00 +14°C° 0 mm 1 m/s 753 mmHg 54%
19:00 +13°C° 0 mm 1 m/s 753 mmHg 61%
20:00 +10°C° 0 mm 2 m/s 753 mmHg 68%
21:00 +9°C° 0 mm 2 m/s 753 mmHg 70%
22:00 +8°C° 0 mm 2 m/s 754 mmHg 72%
23:00 +7°C° 0 mm 2 m/s 754 mmHg 74%

11 Mai, Marţi

Timp Temperatura Precipitaţii Vânt Presiune Umiditate
00:00 +7°C° 0 mm 2 m/s 754 mmHg 75%
01:00 +6°C° 0 mm 2 m/s 754 mmHg 75%
02:00 +6°C° 0 mm 2 m/s 753 mmHg 76%
03:00 +6°C° 0 mm 2 m/s 753 mmHg 77%
04:00 +6°C° 0 mm 2 m/s 753 mmHg 77%
05:00 +6°C° 0 mm 2 m/s 753 mmHg 78%
06:00 +8°C° 0 mm 3 m/s 753 mmHg 70%
07:00 +10°C° 0 mm 3 m/s 753 mmHg 63%
08:00 +12°C° 0 mm 3 m/s 753 mmHg 55%
09:00 +14°C° 0 mm 3 m/s 753 mmHg 54%
10:00 +17°C° 0 mm 3 m/s 752 mmHg 53%
11:00 +18°C° 0 mm 3 m/s 752 mmHg 51%
12:00 +19°C° 0 mm 3 m/s 752 mmHg 52%
13:00 +20°C° 0 mm 4 m/s 752 mmHg 52%
14:00 +21°C° 0 mm 4 m/s 751 mmHg 52%
15:00 +21°C° 0 mm 4 m/s 751 mmHg 57%
16:00 +21°C° 0 mm 4 m/s 751 mmHg 61%
17:00 +20°C° 0 mm 4 m/s 751 mmHg 65%
18:00 +19°C° 0 mm 3 m/s 751 mmHg 74%
19:00 +17°C° 0 mm 3 m/s 751 mmHg 82%
20:00 +14°C° 0 mm 3 m/s 751 mmHg 91%
21:00 +13°C° 0 mm 3 m/s 751 mmHg 93%
22:00 +13°C° 0 mm 2 m/s 751 mmHg 94%
23:00 +13°C° 0 mm 2 m/s 751 mmHg 96%
Arată mai mult

Formular de consimțământ

Meteoprog și furnizorii noștri de servicii pot stoca și accesa date personale, precum cookies, identificatori de dispozitiv sau alte tehnologii similare pe dispozitivul dumneavoastră și procesa astfel de date pentru a personaliza conținutul și reclamele, dar și pentru a oferi caracteristici de social media și pentru a analiza traficul.

  • Stocarea și/sau accesarea informațiilor pe dispozitivul dumneavoastră

    Cookies, identificatori de dispozitiv sau alte informații pot fi stocate sau accesate pe dispozitiv în scopurile indicate mai sus.

  • Reclame și conținut personalizat, evaluarea reclamelor și a conținutului, informații despre audiențe și dezvoltarea produselor

    Reclamele și conținutul pot fi personalizate pe baza unui profil. Pot fi adăugate date suplimentare pentru a personaliza mai bine reclamele și conținutul. Performanța reclamelor și conținutului poate fi măsurată. Pot fi obținute informații despre utilizatorii care au văzut reclamele și conținutul. Aceste date pot fi utilizate pentru a dezvolta sau îmbunătăți experiența utilizatorilor, sistemele și software-ul.

Dând clic pe ‘Sunt de acord’, permiteți utilizarea cookie-urilor menționate, a identificatorilor de dispozitiv, balizelor web sau altor tehnologii similare. Setările pot fi modificate din browser-ul dispozitivului dumneavoastră.

În anumite scopuri, interesele legitime pot prima asupra consimțământului. Puteți citi mai multe informații în acest sens în Politica privind Confidențialitatea Datelor și Cookie.